Location: Unspecified
(42.9796°N, 0.0000°E)
Time: 04:20:40
(UTC+00:00)

NOAA 10 - Visible Passes

Search period start: 04 April 2026 00:00
Search period end: 14 April 2026 00:00
Orbit: 787 x 803 km, 98.7° (Epoch: 29 March)

Date Brightness Start Highest point End Pass type
(mag) Time Alt. Az. Time Alt. Az. Time Alt. Az.
4 Apr 8.6 04:19:28 10° NE 04:23:28 22° E 04:27:25 10° SE visible
5 Apr 9.1 03:53:06 10° ENE 03:54:54 12° E 03:56:41 10° ESE visible
6 Apr 7.0 05:01:45 10° NNE 05:06:52 53° E 05:11:56 10° S visible
7 Apr 8.2 04:33:57 10° NE 04:38:30 29° E 04:43:00 10° SSE visible
8 Apr 8.9 04:06:46 10° NE 04:10:00 16° E 04:13:12 10° SE visible
10 Apr 7.6 04:48:36 10° NNE 04:53:30 40° E 04:58:20 10° SSE visible
11 Apr 8.6 04:21:02 10° NE 04:25:03 22° E 04:29:03 10° SE visible
12 Apr 9.1 03:54:34 10° ENE 03:56:30 12° E 03:58:26 10° ESE visible
